Midland Airpark, TX

12:36 AM CDT on April 24, 2018 (GMT -0500)
Midland

Weather History for KMDD - August, 2012

Change the Weather History Date:

Wednesday, August 22, 2012

  Actual Average (KMAF) Record (KMAF)
Temperature  
Mean Temperature 81 °F -  
Max Temperature 94 °F 91 °F 103 °F (1985)
Min Temperature 68 °F 67 °F 52 °F (1947)
Cooling Degree Days 16    
Growing Degree Days 31 (Base 50)    
Moisture  
Dew Point 59 °F    
Average Humidity 54    
Maximum Humidity 81    
Minimum Humidity 26    
Precipitation  
Precipitation 0.00 in - - ()
Sea Level Pressure  
Sea Level Pressure 30.06 in    
Wind  
Wind Speed 10 mph (SE)    
Max Wind Speed 18 mph    
Max Gust Speed 24 mph    
Visibility 10 miles    
Events      
Averages and records for this station are not official NWS values.
T = Trace of Precipitation, MM = Missing Value Source: NWS Daily Summary

Daily Weather History Graph

Daily Weather History Graph

Search for Another Location

Airport or City:

Astronomy

Aug. 22, 2012 Rise Set
Actual Time 7:17 AM CDT 8:23 PM CDT
Civil Twilight 6:52 AM CDT 8:49 PM CDT
Nautical Twilight 6:22 AM CDT 9:19 PM CDT
Astronomical Twilight 5:51 AM CDT 9:50 PM CDT
Moon 12:34 PM CDT (8/22) 11:33 PM CDT (8/22)
Length of Visible Light 13h 56m
Length of Day
13h 06m
Waxing Crescent, 29% of the Moon is Illuminated
Aug 22
Waxing Crescent
Aug 24
First Quarter
Aug 31
Full
Sep 8
Last Quarter
Sep 15
New

Hourly Weather History & Observations

Time (CDT) Temp. Heat Index Dew Point Humidity Pressure Visibility Wind Dir Wind Speed Gust Speed Precip Events Conditions
12:15 AM 75.6 °F - 61.2 °F 61% 30.09 in 10.0 mi East 12.7 mph - N/A   Mostly Cloudy
12:35 AM 74.8 °F - 61.2 °F 62% 30.09 in 10.0 mi East 13.8 mph - N/A   Mostly Cloudy
12:55 AM 74.1 °F - 61.3 °F 64% 30.09 in 10.0 mi East 13.8 mph - N/A   Scattered Clouds
1:15 AM 73.6 °F - 61.3 °F 65% 30.09 in 10.0 mi East 12.7 mph - N/A   Clear
1:35 AM 72.9 °F - 61.7 °F 68% 30.09 in 10.0 mi East 11.5 mph - N/A   Clear
1:55 AM 72.5 °F - 61.7 °F 69% 30.09 in 10.0 mi East 9.2 mph - N/A   Scattered Clouds
2:15 AM 72.3 °F - 61.7 °F 69% 30.09 in 10.0 mi East 10.4 mph - N/A   Scattered Clouds
2:35 AM 72.0 °F - 61.7 °F 70% 30.08 in 10.0 mi East 11.5 mph - N/A   Scattered Clouds
2:55 AM 71.2 °F - 61.7 °F 72% 30.08 in 10.0 mi East 9.2 mph - N/A   Clear
3:15 AM 70.5 °F - 62.1 °F 74% 30.08 in 10.0 mi East 9.2 mph - N/A   Clear
3:35 AM 70.0 °F - 62.4 °F 77% 30.08 in 10.0 mi East 9.2 mph - N/A   Scattered Clouds
3:55 AM 69.8 °F - 62.6 °F 78% 30.09 in 10.0 mi East 11.5 mph - N/A   Scattered Clouds
4:15 AM 69.4 °F - 62.6 °F 79% 30.08 in 10.0 mi East 9.2 mph - N/A   Mostly Cloudy
4:35 AM 69.6 °F - 62.8 °F 79% 30.09 in 10.0 mi East 6.9 mph - N/A   Mostly Cloudy
4:55 AM 69.3 °F - 62.8 °F 80% 30.08 in 10.0 mi East 6.9 mph - N/A   Mostly Cloudy
5:15 AM 69.1 °F - 62.6 °F 80% 30.09 in 10.0 mi East 9.2 mph - N/A   Mostly Cloudy
5:35 AM 68.7 °F - 62.4 °F 80% 30.09 in 10.0 mi East 6.9 mph - N/A   Overcast
5:55 AM 68.7 °F - 62.4 °F 80% 30.09 in 10.0 mi East 11.5 mph - N/A   Overcast
6:15 AM 68.5 °F - 62.2 °F 80% 30.09 in 10.0 mi East 9.2 mph - N/A   Overcast
6:35 AM 68.4 °F - 62.2 °F 81% 30.10 in 10.0 mi East 10.4 mph - N/A   Overcast
6:55 AM 68.2 °F - 62.1 °F 81% 30.10 in 10.0 mi East 6.9 mph - N/A   Overcast
7:15 AM 68.2 °F - 61.9 °F 80% 30.12 in 10.0 mi ESE 6.9 mph - N/A   Overcast
7:35 AM 68.0 °F - 61.9 °F 81% 30.12 in 10.0 mi East 9.2 mph - N/A   Overcast
7:55 AM 68.0 °F - 61.7 °F 80% 30.12 in 10.0 mi East 11.5 mph - N/A   Overcast
8:15 AM 68.0 °F - 61.9 °F 81% 30.12 in 10.0 mi East 9.2 mph - N/A   Overcast
8:35 AM 68.2 °F - 61.9 °F 80% 30.13 in 10.0 mi ESE 6.9 mph - N/A   Overcast
8:55 AM 68.4 °F - 62.1 °F 80% 30.13 in 10.0 mi East 8.1 mph - N/A   Overcast
9:15 AM 68.9 °F - 62.1 °F 79% 30.14 in 10.0 mi East 6.9 mph - N/A   Overcast
9:35 AM 69.4 °F - 62.4 °F 78% 30.13 in 10.0 mi East 8.1 mph - N/A   Overcast
9:55 AM 70.7 °F - 62.6 °F 75% 30.13 in 10.0 mi East 9.2 mph - N/A   Overcast
10:15 AM 72.1 °F - 62.6 °F 72% 30.12 in 10.0 mi ESE 8.1 mph - N/A   Scattered Clouds
10:35 AM 73.2 °F - 62.6 °F 69% 30.12 in 10.0 mi SE 6.9 mph - N/A   Clear
11:15 AM 77.0 °F - 62.6 °F 61% 30.12 in 10.0 mi SE 10.4 mph - N/A   Clear
11:35 AM 78.6 °F - 62.4 °F 57% 30.13 in 10.0 mi SE 6.9 mph 16.1 mph N/A   Clear
11:55 AM 80.2 °F 81.4 °F 62.2 °F 54% 30.12 in 10.0 mi SSE 6.9 mph - N/A   Clear
12:15 PM 82.2 °F 83.0 °F 61.9 °F 50% 30.12 in 10.0 mi SSE 11.5 mph - N/A   Clear
12:35 PM 83.3 °F 83.9 °F 61.7 °F 48% 30.10 in 10.0 mi SSE 11.5 mph 18.4 mph N/A   Clear
12:55 PM 84.7 °F 85.0 °F 61.2 °F 45% 30.10 in 10.0 mi South 8.1 mph - N/A   Clear
1:15 PM 86.0 °F 85.9 °F 60.3 °F 42% 30.09 in 10.0 mi SSW 6.9 mph - N/A   Clear
1:35 PM 87.6 °F 87.2 °F 59.9 °F 39% 30.08 in 10.0 mi ESE 5.8 mph - N/A   Clear
1:55 PM 88.9 °F 87.7 °F 57.9 °F 35% 30.07 in 10.0 mi SSE 8.1 mph - N/A   Clear
2:15 PM 89.8 °F 88.4 °F 56.8 °F 33% 30.06 in 10.0 mi SSW 8.1 mph - N/A   Clear
2:55 PM 91.6 °F 89.8 °F 55.9 °F 30% 30.04 in 10.0 mi SSE 6.9 mph - N/A   Clear
3:15 PM 92.1 °F 90.2 °F 55.8 °F 29% 30.03 in 10.0 mi SE 8.1 mph - N/A   Clear
3:35 PM 93.2 °F 91.3 °F 55.2 °F 28% 30.02 in 10.0 mi SE 8.1 mph - N/A   Clear
3:55 PM 93.7 °F 91.7 °F 54.7 °F 27% 30.02 in 10.0 mi South 8.1 mph - N/A   Clear
4:15 PM 94.1 °F 91.9 °F 54.3 °F 26% 30.01 in 10.0 mi ESE 10.4 mph - N/A   Clear
4:35 PM 94.3 °F 92.1 °F 54.3 °F 26% 30.00 in 10.0 mi SE 10.4 mph - N/A   Clear
5:15 PM 93.7 °F 91.4 °F 54.1 °F 26% 30.00 in 10.0 mi South 9.2 mph - N/A   Scattered Clouds
5:35 PM 94.1 °F 91.9 °F 54.3 °F 26% 29.99 in 10.0 mi South 13.8 mph - N/A   Scattered Clouds
5:55 PM 93.9 °F 92.0 °F 54.7 °F 27% 29.99 in 10.0 mi SE 12.7 mph - N/A   Scattered Clouds
6:15 PM 93.9 °F 91.7 °F 54.5 °F 26% 29.98 in 10.0 mi South 12.7 mph - N/A   Clear
6:35 PM 94.1 °F 91.9 °F 54.5 °F 26% 29.98 in 10.0 mi South 9.2 mph - N/A   Clear
6:55 PM 93.6 °F 91.5 °F 54.5 °F 27% 29.98 in 10.0 mi South 10.4 mph - N/A   Clear
7:15 PM 92.7 °F 90.4 °F 54.5 °F 27% 29.97 in 10.0 mi SSE 13.8 mph - N/A   Clear
7:35 PM 92.3 °F 90.2 °F 54.5 °F 28% 29.97 in 10.0 mi SSE 12.7 mph - N/A   Clear
7:55 PM 91.4 °F 89.4 °F 54.5 °F 29% 29.98 in 10.0 mi SSE 10.4 mph - N/A   Clear
8:15 PM 90.9 °F 88.7 °F 54.5 °F 29% 29.98 in 10.0 mi SSE 12.7 mph 16.1 mph N/A   Clear
8:35 PM 90.3 °F 88.3 °F 54.5 °F 30% 29.98 in 10.0 mi SSE 11.5 mph - N/A   Clear
8:55 PM 89.8 °F 87.7 °F 54.7 °F 30% 29.99 in 10.0 mi SSE 11.5 mph - N/A   Scattered Clouds
9:15 PM 89.4 °F 87.3 °F 54.5 °F 30% 29.99 in 10.0 mi SSE 12.7 mph - N/A   Scattered Clouds
9:35 PM 88.9 °F 86.9 °F 54.5 °F 31% 30.00 in 10.0 mi SSE 10.4 mph - N/A   Scattered Clouds
9:55 PM 88.3 °F 86.5 °F 54.9 °F 32% 30.01 in 10.0 mi SSE 12.7 mph 17.3 mph N/A   Mostly Cloudy
10:15 PM 87.6 °F 85.9 °F 55.2 °F 33% 30.02 in 10.0 mi SSE 10.4 mph 20.7 mph N/A   Mostly Cloudy
10:35 PM 87.1 °F 85.5 °F 55.8 °F 34% 30.02 in 10.0 mi SSE 15.0 mph 18.4 mph N/A   Scattered Clouds
11:35 PM 83.3 °F 83.5 °F 60.6 °F 46% 30.04 in 10.0 mi South 18.4 mph 24.2 mph N/A   Drizzle
11:55 PM 81.1 °F 82.1 °F 62.1 °F 52% 30.03 in 10.0 mi SSE 16.1 mph 19.6 mph N/A   Scattered Clouds